Volver al catálogo

ONEWEB-0572

ActivoComunicacionesPO
NORAD 55151·PAYLOAD·🇬🇧 United Kingdom

Lanzado Jan 10, 2023 desde Cape Canaveral Space Force Station

Loading…

Próximos Pases (próximas 24 horas)

TLE

ActualizadoSource: CelesTrak SupGP

Época: Sep 14, 2026, 07:19 UTC

1 55151C 23004M   26257.30503889 -.00003082  00000+0 -79470-2 0  2574
2 55151  87.9206 348.1676 0001728 103.7737 333.7635 13.17654900    19

Sigue ONEWEB-0572 en tiempo real con AllMySat

Download on the App Store